Wind_Speed
25 24 24 17 12 12 9 7 5 6 7 9 12 15 17 16 16 15 15 16 16 18 19 21 23 25 21 15 14 17 20 21 22 26 30 28 29 31 35 39 42 46 46 44 44 46 44
23 22 18 13 12 11 10 7 8 8 8 7 5 3 3 5 2 7 8 10 12 14 18 18 18 18 20 16 20 20 22 27 28 28 27 29 31 32 32 35 36 39 41 42 42 37 37
26 23 17 13 12 10 7 5 5 5 5 4 4 1 1 2 5 7 11 13 15 16 17 20 23 22 27 29 28 29 27 23 26 29 33 33 32 33 35 37 34 31 36 39 41 39 32
25 25 23 19 19 21 17 19 17 14 11 10 8 9 8 8 10 12 13 17 17 18 20 23 21 22 26 26 26 27 31 33 30 33 35 36 36 35 40 40 39 35 30 32 40 40 35
28 30 30 25 21 22 22 22 23 21 17 16 16 14 11 12 17 19 19 22 21 22 21 21 22 27 30 30 33 35 37 37 39 39 37 40 43 46 48 49 45 42 37 35 37 39 38
36 38 35 32 31 30 25 27 27 22 21 17 18 16 15 18 20 23 24 25 28 30 31 31 30 31 30 33 37 40 39 39 40 47 50 48 47 50 52 49 51 51 45 42 43 37 34
39 41 42 38 34 38 38 35 31 30 28 29 22 20 23 25 29 31 35 35 33 34 37 37 38 37 35 38 41 43 43 42 45 46 47 52 51 60 62 60 53 51 49 43 47 45 35
41 43 44 43 44 43 41 44 40 39 39 39 38 36 37 36 40 45 40 40 38 34 40 40 43 46 44 47 46 45 44 45 46 46 47 47 47 56 56 58 61 60 58 58 50 53 47
49 47 48 49 47 41 44 43 45 44 44 44 44 46 46 47 46 42 43 39 39 40 47 47 51 51 51 52 50 50 50 50 54 56 58 59 52 52 54 55 59 61 61 58 56 58 56
54 55 49 48 45 38 40 44 44 46 44 45 47 49 51 52 48 47 46 49 50 51 49 48 51 52 54 57 55 55 54 59 63 64 67 65 61 64 63 62 61 57 63 63 65 60 58
53 58 47 47 37 33 39 45 45 44 51 50 50 51 51 51 53 52 53 56 55 54 54 52 53 53 61 63 61 58 63 67 70 71 72 73 70 71 70 68 69 68 64 65 68 68 65
52 58 49 44 42 37 40 44 45 46 48 54 54 55 56 55 55 56 57 57 55 56 56 55 57 60 64 68 68 67 69 72 77 76 77 80 78 77 76 78 78 77 76 74 70 71 68
54 57 59 46 42 39 38 40 43 43 44 46 49 51 53 54 53 53 55 57 59 61 62 62 67 68 72 74 75 77 78 81 83 83 83 83 84 83 85 86 87 88 86 80 82 78 71
58 64 63 49 44 41 37 37 37 39 43 47 49 51 53 56 58 59 62 65 67 69 71 74 78 78 79 81 81 82 83 86 88 89 87 88 88 92 93 94 94 92 91 90 92 85 85
55 67 60 52 49 46 46 45 46 47 50 53 56 59 61 63 65 69 71 72 77 80 81 83 85 86 86 89 92 92 93 94 95 97 99 98 95 98 98 99 99 100 101 100 98 96 92
61 69 61 59 47 48 51 55 56 57 57 61 66 68 68 74 77 80 81 83 88 90 92 93 94 95 95 96 98 99 100 100 104 105 106 106 104 102 104 104 107 105 103 102 101 98 99
68 72 67 58 54 57 59 60 62 64 66 71 75 79 80 82 85 87 90 92 94 97 100 100 101 102 103 102 105 107 108 109 109 108 110 109 108 108 112 113 111 107 102 100 101 100 99
69 69 63 61 60 64 68 68 69 71 75 79 81 84 88 91 93 94 95 97 99 103 107 107 107 108 111 114 113 115 113 116 117 117 117 117 116 115 113 111 108 106 104 104 104 102 100
71 70 69 68 69 71 73 75 79 82 86 89 89 91 95 99 103 105 106 110 111 112 114 116 119 119 121 121 121 120 121 122 124 125 124 123 123 118 110 110 111 108 106 105 107 107 104
75 75 76 75 76 78 80 83 90 95 98 100 102 101 104 108 110 113 117 115 117 122 124 126 124 127 128 127 128 127 125 126 128 127 128 125 121 114 109 109 108 104 103 104 106 107 106
77 79 81 85 86 86 91 97 102 105 106 108 109 114 114 114 117 121 127 125 124 130 131 132 133 135 134 129 131 130 128 130 131 126 123 120 112 107 104 103 103 99 96 100 104 105 106
87 90 90 90 94 101 104 109 113 116 119 121 123 125 129 131 130 132 135 131 135 140 139 135 135 135 134 131 133 131 128 126 122 116 113 110 104 102 94 98 97 93 91 96 99 101 102
95 96 97 100 105 108 112 118 121 126 134 136 140 142 144 135 139 141 142 143 143 144 140 134 131 131 130 129 127 122 120 115 110 104 103 100 99 98 89 92 94 89 91 94 96 98 98
99 102 106 110 114 119 124 128 134 138 143 146 153 154 153 144 140 142 141 143 144 136 128 122 122 121 120 118 116 112 109 105 102 98 96 94 95 95 91 90 91 89 89 92 94 94 96
107 111 116 120 125 131 134 139 144 149 151 156 156 159 159 147 138 133 133 128 123 118 114 110 112 111 109 108 105 102 101 99 98 94 94 94 93 93 90 90 90 87 88 91 93 94 94
117 122 126 130 134 141 145 146 152 152 156 160 158 150 139 132 120 113 113 113 112 108 105 104 103 105 105 104 101 99 97 99 95 94 95 96 94 92 90 91 90 87 89 89 92 90 92
129 131 136 142 145 149 150 151 147 155 152 141 130 123 120 115 109 104 105 107 106 103 100 101 99 102 102 99 97 96 94 94 92 92 93 95 94 91 89 90 89 85 86 86 84 83 84
135 142 143 148 149 151 152 152 155 137 123 116 111 110 109 107 100 99 96 94 95 93 88 90 92 91 95 94 90 90 90 89 88 88 86 87 87 86 87 87 85 83 80 79 76 74 74
146 149 148 154 162 154 157 141 125 114 109 103 99 96 95 92 87 86 84 84 83 82 78 80 81 83 85 85 82 83 82 81 81 80 80 79 80 82 83 82 81 78 75 72 70 69 68
Wind_Direction
6 3 355 349 352 353 342 334 332 321 316 293 283 278 278 286 290 296 299 298 299 296 297 296 297 301 300 298 304 304 302 316 319 319 321 325 328 322 314 306 302 294 291 291 290 287 282
355 5 2 10 18 29 21 54 63 58 37 17 328 300 276 278 253 333 333 324 313 305 304 304 310 298 288 267 279 294 309 308 311 314 319 321 323 322 317 322 321 310 307 304 294 289 290
342 343 352 323 324 324 325 327 317 342 349 7 354 19 303 273 304 332 333 317 307 311 309 298 304 300 295 285 288 289 301 306 311 313 316 313 316 315 315 321 326 313 306 306 302 298 291
331 329 324 316 314 311 297 300 292 291 283 265 298 277 258 260 284 296 305 312 320 309 302 295 299 301 302 295 292 292 298 302 305 307 306 308 309 316 310 317 319 316 315 305 303 302 298
328 321 305 303 292 292 298 293 292 278 279 275 273 282 303 302 304 305 303 297 293 290 289 292 299 304 300 300 297 294 290 293 308 303 296 305 311 309 307 311 320 310 313 315 307 299 303
333 327 313 294 288 280 276 283 285 279 275 274 270 265 278 288 299 302 299 293 291 287 282 285 287 298 298 294 299 301 302 301 303 297 291 293 296 299 300 311 309 312 310 310 305 312 310
333 326 320 303 289 279 278 273 270 272 271 279 266 262 271 280 292 298 297 296 287 285 283 278 280 284 300 295 292 295 299 304 303 302 300 293 298 288 294 299 301 306 306 302 297 306 311
326 333 329 309 297 285 276 272 270 268 265 268 268 271 274 276 285 288 289 293 287 290 289 285 280 278 285 296 299 295 300 302 304 304 304 303 298 291 297 296 297 297 303 301 297 296 304
331 328 329 318 304 283 275 271 271 270 269 266 263 267 270 274 284 282 287 287 287 282 294 289 287 282 275 291 296 295 296 299 303 303 303 305 300 294 299 301 297 295 293 296 296 294 297
333 329 322 322 311 286 275 275 272 270 269 269 272 274 276 281 283 285 285 288 288 293 296 287 287 278 282 292 298 294 293 298 300 301 302 302 302 302 299 298 298 301 293 289 291 292 293
329 331 316 323 314 296 289 288 286 282 269 270 273 272 275 277 280 282 287 290 293 293 294 290 293 285 278 286 292 292 292 292 295 296 297 299 300 301 299 297 296 294 293 289 287 286 287
327 326 312 314 317 301 292 289 289 289 286 271 275 281 286 287 290 291 291 293 294 295 294 295 294 291 293 293 295 293 291 291 292 293 295 297 298 298 298 296 296 296 291 288 291 284 285
324 330 325 301 304 307 300 297 298 295 292 285 283 287 289 292 292 293 292 290 290 291 292 294 293 293 294 295 294 293 291 292 293 294 295 297 297 296 295 295 294 294 293 289 281 284 283
318 329 327 306 300 296 297 299 297 297 295 294 292 292 292 291 291 290 290 292 292 293 293 295 295 294 294 293 292 291 290 293 295 296 295 293 291 292 293 293 293 293 289 288 287 283 282
314 323 323 311 299 297 297 299 301 299 298 299 298 298 297 294 294 295 295 295 296 296 296 295 294 294 294 294 294 295 297 298 297 295 294 293 292 292 293 293 292 291 288 287 285 284 282
313 319 317 318 298 295 298 302 301 302 302 304 304 302 302 300 299 299 299 298 297 296 295 296 297 296 296 295 297 297 297 296 294 294 294 294 294 294 293 292 292 289 287 285 283 280 279
308 316 313 307 300 298 299 300 301 302 303 304 305 303 301 299 298 297 298 299 298 297 297 295 296 296 296 295 294 294 295 294 294 294 293 293 293 295 293 293 291 290 287 284 281 280 278
305 310 305 298 296 298 301 300 299 299 300 300 298 296 296 297 297 297 297 296 296 297 297 294 294 293 293 293 292 291 292 293 293 293 292 292 291 292 290 288 287 285 284 281 280 279 278
305 303 302 300 298 298 298 297 298 298 297 296 296 296 297 300 300 300 300 300 298 296 294 293 293 293 293 292 292 292 292 291 292 292 291 291 291 290 288 287 284 283 281 279 277 275 273
305 304 303 301 299 297 296 295 295 297 298 298 300 302 301 300 299 300 299 300 297 295 293 292 293 293 291 292 291 290 290 290 292 290 289 288 287 286 286 285 282 280 278 276 275 273 271
301 302 301 300 298 296 297 299 299 300 301 302 303 301 299 298 299 299 300 295 295 293 292 292 291 290 290 291 291 291 289 290 290 288 285 285 285 284 283 281 279 277 275 275 274 273 273
302 305 303 301 300 301 304 304 305 303 302 301 301 301 299 299 298 296 299 296 295 294 293 292 290 290 290 289 287 287 287 288 287 285 284 284 283 281 280 278 276 275 276 273 273 273 274
302 303 305 305 304 303 303 303 304 303 303 304 305 304 302 301 300 298 295 295 295 293 292 289 287 287 286 285 285 285 285 285 284 283 282 281 281 279 278 275 275 277 274 273 273 273 274
301 302 300 301 303 305 306 306 305 307 307 307 306 304 301 299 296 296 295 292 292 291 288 286 285 285 284 283 284 284 284 285 284 282 281 280 279 278 278 276 275 275 275 274 273 273 273
299 300 302 305 305 307 306 309 310 309 309 307 304 303 300 297 296 295 291 291 289 287 286 285 284 284 283 282 282 284 284 283 281 282 281 280 278 277 277 276 276 275 273 273 273 273 274
302 304 307 307 307 308 310 309 307 308 307 305 301 298 297 295 296 292 289 288 286 285 284 283 283 281 281 282 283 283 282 281 282 281 279 278 277 277 277 275 275 273 273 273 273 274 273
306 307 308 308 309 309 310 308 308 306 303 298 298 296 295 294 293 289 286 284 284 283 281 281 280 280 280 280 280 279 279 278 277 276 277 278 279 280 278 277 276 276 274 274 275 274 274
308 307 309 309 309 310 312 309 308 304 300 298 296 294 293 292 290 288 287 284 282 281 280 280 278 279 278 279 280 279 278 278 278 277 277 277 278 277 276 276 276 275 275 275 276 276 274
307 310 311 312 311 314 311 308 306 303 301 300 298 295 293 293 292 291 288 285 286 286 284 282 280 278 279 280 280 279 278 278 277 277 277 277 276 275 275 275 275 275 275 275 275 274 273
Height
10767 10765 10761 10759 10757 10753 10751 10749 10748 10746 10744 10743 10743 10743 10743 10743 10741 10740 10738 10736 10734 10733 10732 10731 10729 10727 10724 10723 10721 10718 10716 10713 10710 10706 10703 10698 10694 10690 10685 10682 10680 10675 10670 10668 10664 10662 10662
10769 10766 10764 10762 10759 10757 10755 10752 10750 10748 10746 10744 10742 10740 10739 10738 10737 10736 10735 10733 10731 10729 10728 10726 10724 10722 10720 10719 10716 10714 10712 10708 10704 10701 10697 10693 10689 10685 10679 10676 10673 10668 10663 10657 10654 10654 10653
10770 10768 10765 10763 10760 10758 10756 10754 10751 10748 10746 10743 10741 10739 10738 10737 10735 10734 10732 10730 10728 10725 10723 10722 10719 10717 10715 10713 10711 10709 10707 10703 10699 10696 10692 10687 10683 10679 10674 10671 10666 10661 10657 10651 10646 10645 10645
10769 10766 10764 10761 10759 10756 10753 10750 10747 10745 10742 10741 10739 10737 10735 10733 10731 10729 10727 10726 10723 10721 10720 10717 10715 10713 10709 10706 10705 10703 10700 10696 10693 10689 10685 10681 10677 10672 10667 10665 10662 10655 10651 10646 10639 10638 10637
10767 10764 10761 10758 10755 10752 10749 10746 10744 10742 10739 10736 10734 10733 10731 10729 10727 10725 10723 10721 10719 10716 10714 10712 10710 10708 10704 10701 10698 10695 10692 10689 10686 10681 10677 10673 10669 10664 10658 10658 10656 10650 10648 10641 10633 10629 10630
10763 10759 10756 10753 10750 10747 10745 10742 10739 10737 10735 10732 10730 10727 10726 10725 10723 10720 10718 10715 10713 10710 10707 10705 10703 10700 10697 10693 10689 10685 10683 10680 10676 10672 10667 10663 10661 10654 10648 10647 10648 10643 10640 10635 10628 10624 10623
10758 10753 10749 10746 10742 10739 10737 10734 10732 10730 10730 10728 10725 10722 10720 10719 10716 10714 10712 10709 10707 10704 10699 10696 10695 10691 10688 10684 10679 10675 10672 10670 10666 10662 10657 10655 10652 10643 10638 10636 10636 10633 10631 10628 10618 10616 10619
10750 10745 10740 10736 10732 10729 10726 10725 10723 10721 10720 10719 10717 10715 10713 10711 10708 10705 10703 10700 10698 10697 10691 10686 10684 10682 10677 10673 10669 10664 10660 10657 10654 10650 10645 10643 10640 10631 10628 10624 10621 10619 10618 10614 10613 10606 10607
10742 10737 10730 10724 10718 10715 10714 10713 10712 10710 10709 10709 10707 10705 10703 10700 10698 10695 10692 10690 10688 10686 10685 10674 10670 10667 10665 10663 10659 10652 10647 10644 10642 10637 10633 10629 10625 10619 10613 10610 10606 10605 10603 10601 10600 10595 10595
10734 10728 10722 10714 10707 10703 10702 10702 10702 10700 10699 10698 10697 10695 10693 10689 10689 10685 10682 10679 10677 10674 10674 10668 10661 10654 10650 10647 10646 10641 10636 10631 10627 10623 10618 10615 10609 10605 10601 10594 10589 10590 10583 10584 10583 10582 10583
10726 10720 10713 10707 10700 10698 10697 10694 10692 10690 10689 10687 10686 10683 10681 10679 10677 10674 10670 10667 10662 10659 10658 10655 10650 10644 10639 10634 10630 10627 10621 10615 10610 10608 10604 10597 10594 10589 10583 10577 10572 10570 10567 10563 10561 10562 10566
10718 10712 10706 10701 10696 10691 10688 10686 10683 10679 10677 10675 10674 10672 10669 10668 10664 10660 10656 10652 10649 10644 10641 10639 10634 10629 10624 10618 10612 10607 10603 10597 10591 10589 10586 10578 10575 10570 10564 10556 10551 10549 10546 10543 10540 10540 10545
10709 10703 10698 10693 10689 10684 10680 10677 10674 10670 10667 10665 10664 10661 10656 10652 10650 10646 10643 10639 10634 10627 10623 10623 10616 10611 10607 10600 10593 10587 10583 10578 10571 10569 10566 10561 10553 10548 10541 10535 10529 10524 10521 10518 10517 10519 10519
10699 10694 10689 10682 10680 10677 10673 10669 10666 10662 10658 10655 10653 10649 10645 10639 10635 10631 10627 10622 10616 10611 10605 10602 10596 10590 10587 10579 10574 10568 10563 10557 10549 10543 10541 10539 10536 10525 10521 10512 10505 10501 10496 10490 10485 10494 10494
10687 10683 10678 10673 10670 10667 10664 10660 10657 10654 10649 10643 10639 10636 10630 10624 10618 10613 10608 10604 10595 10590 10585 10579 10573 10568 10563 10555 10545 10543 10537 10532 10526 10518 10511 10509 10511 10500 10495 10488 10481 10474 10466 10463 10456 10459 10461
10675 10671 10666 10662 10658 10654 10650 10647 10643 10640 10636 10631 10622 10616 10613 10606 10600 10593 10587 10581 10570 10565 10558 10552 10548 10540 10536 10528 10519 10513 10507 10506 10498 10492 10485 10478 10475 10473 10464 10460 10452 10445 10438 10432 10425 10426 10426
10663 10658 10653 10648 10645 10641 10636 10631 10626 10622 10618 10614 10607 10597 10592 10585 10577 10571 10563 10557 10547 10536 10528 10521 10518 10510 10504 10496 10490 10484 10481 10473 10466 10461 10453 10449 10447 10450 10439 10428 10416 10409 10404 10399 10393 10392 10391
10649 10644 10639 10634 10629 10624 10618 10612 10607 10602 10598 10591 10587 10578 10569 10561 10553 10546 10539 10532 10525 10514 10499 10491 10487 10478 10473 10466 10461 10452 10449 10437 10432 10424 10419 10415 10409 10413 10409 10398 10390 10384 10378 10366 10357 10357 10357
10633 10629 10624 10618 10613 10606 10600 10593 10586 10579 10573 10569 10564 10560 10545 10533 10526 10519 10512 10503 10494 10483 10471 10460 10453 10445 10438 10429 10420 10420 10414 10405 10395 10389 10383 10378 10370 10369 10370 10362 10352 10349 10343 10336 10327 10325 10331
10616 10611 10606 10601 10594 10587 10580 10572 10564 10556 10548 10540 10532 10530 10523 10509 10498 10488 10478 10475 10461 10448 10437 10422 10419 10407 10397 10393 10383 10380 10375 10366 10362 10353 10342 10337 10335 10333 10333 10321 10311 10313 10308 10300 10292 10291 10290
10599 10594 10588 10580 10572 10565 10557 10547 10537 10526 10516 10511 10505 10492 10487 10479 10469 10455 10443 10437 10425 10410 10394 10388 10381 10366 10356 10354 10343 10334 10332 10329 10323 10316 10303 10295 10298 10295 10295 10286 10276 10278 10281 10267 10257 10253 10252
10580 10575 10568 10561 10552 10543 10535 10520 10507 10497 10483 10477 10472 10459 10449 10446 10431 10415 10399 10391 10378 10361 10350 10348 10333 10321 10316 10310 10299 10297 10293 10289 10280 10275 10264 10259 10260 10255 10265 10249 10242 10247 10250 10238 10231 10224 10221
10560 10552 10545 10536 10527 10518 10506 10494 10480 10464 10447 10430 10419 10406 10390 10408 10383 10369 10350 10341 10331 10311 10310 10297 10289 10281 10272 10262 10257 10258 10252 10249 10242 10240 10230 10227 10222 10219 10231 10220 10211 10223 10214 10207 10204 10198 10193
10538 10529 10519 10511 10499 10488 10475 10461 10446 10429 10406 10388 10370 10349 10337 10342 10336 10323 10305 10284 10279 10267 10261 10255 10241 10236 10231 10224 10219 10218 10214 10212 10209 10205 10198 10195 10188 10184 10190 10189 10187 10189 10186 10178 10172 10171 10166
10514 10503 10492 10481 10467 10455 10442 10429 10406 10384 10366 10345 10325 10302 10278 10277 10284 10280 10252 10242 10232 10224 10216 10213 10202 10199 10192 10186 10184 10184 10182 10180 10176 10175 10166 10160 10158 10156 10157 10156 10156 10159 10155 10148 10144 10143 10142
10487 10476 10465 10451 10437 10421 10406 10390 10374 10350 10324 10294 10276 10254 10233 10227 10235 10227 10210 10197 10190 10185 10181 10175 10171 10160 10156 10150 10150 10152 10151 10145 10146 10141 10134 10128 10129 10128 10128 10123 10124 10128 10122 10120 10116 10121 10113
10461 10449 10434 10419 10401 10385 10368 10348 10329 10307 10277 10249 10233 10212 10192 10185 10186 10183 10171 10159 10153 10148 10147 10139 10137 10126 10120 10120 10119 10119 10119 10115 10114 10112 10106 10098 10097 10098 10095 10091 10093 10097 10093 10092 10093 10093 10089
10433 10419 10406 10390 10369 10344 10317 10292 10272 10250 10230 10208 10195 10177 10159 10151 10149 10136 10131 10125 10116 10115 10119 10107 10099 10097 10088 10087 10090 10086 10085 10083 10083 10081 10081 10076 10073 10070 10065 10063 10066 10065 10067 10066 10067 10066 10063
10401 10387 10367 10346 10324 10297 10268 10241 10222 10204 10185 10171 10156 10141 10128 10118 10116 10104 10097 10090 10086 10082 10084 10075 10071 10066 10061 10059 10061 10058 10056 10056 10055 10054 10051 10051 10047 10041 10039 10039 10038 10039 10041 10042 10042 10041 10041